Weather History for Abu Dhabi Bateen Airport, UAE

Change the Weather History Date:

Friday, February 7, 2014

  Actual Average Record
Temperature  
Mean Temperature 64 °F -  
Max Temperature 69 °F 78 °F - ()
Min Temperature 59 °F 59 °F - ()
Degree Days  
Heating Degree Days 1    
Growing Degree Days 14 (Base 50)    
Moisture  
Dew Point 50 °F    
Average Humidity 59    
Maximum Humidity 68    
Minimum Humidity 39    
Precipitation  
Precipitation 0.00 in 0.03 in - ()
Sea Level Pressure  
Sea Level Pressure 30.02 in    
Wind  
Wind Speed 5 mph ()    
Max Wind Speed 14 mph    
Max Gust Speed -    
Visibility 6.1 miles    
Events      
T = Trace of Precipitation, MM = Missing Value Source: Averaged Metar Reports

Daily Weather History Graph

Daily Weather History Graph

Search for Another Location

Airport:

Trip Planner

Search our weather history database for the weather conditions in past years. The results will help you decide how hot, cold, wet, or windy it might be!

Date:

Astronomy

Feb. 07, 2014 Rise Set
Actual Time 7:01 AM GST 6:11 PM GST
Civil Twilight 6:37 AM GST 6:35 PM GST
Nautical Twilight 6:10 AM GST 7:02 PM GST
Astronomical Twilight 5:43 AM GST 7:29 PM GST
Moon 12:11 PM GST (2/7) 12:50 AM GST (2/7)
Length of Visible Light 11h 57m
Length of Day
11h 10m
First Quarter, 55% of the Moon is Illuminated
Feb 7
First Quarter
Feb 15
Full
Feb 22
Last Quarter
Mar 1
New
Mar 8
First Quarter

Hourly Weather History & Observations

Time (GST) Temp. Dew Point Humidity Pressure Visibility Wind Dir Wind Speed Gust Speed Precip Events Conditions
12:00 AM 60.8 °F 48.2 °F 63% 30.01 in 6.2 mi NW 5.8 mph - N/A   Partly Cloudy
1:00 AM 60 °F 49 °F 58% 30.01 in 6 mi WNW 4.6 mph - -   Scattered Clouds
1:00 AM 60.8 °F 48.2 °F 63% 30.01 in 6.2 mi WNW 4.6 mph - N/A   Partly Cloudy
2:00 AM 60.8 °F 50.0 °F 68% 30.01 in 6.2 mi NW 8.1 mph - N/A   Partly Cloudy
3:00 AM 60.8 °F 50.0 °F 68% 29.98 in 6.2 mi NNW 3.5 mph - N/A   Partly Cloudy
4:00 AM 60 °F 50 °F 60% 30.00 in 6 mi NNW 3.5 mph - -   Partly Cloudy
4:00 AM 60.8 °F 50.0 °F 68% 29.98 in 6.2 mi NNW 3.5 mph - N/A   Scattered Clouds
5:00 AM 60.8 °F 50.0 °F 68% 29.98 in 6.2 mi NNW 3.5 mph - N/A   Mostly Cloudy
6:00 AM 60.8 °F 50.0 °F 68% 30.01 in 6.2 mi NNW 5.8 mph - N/A   Partly Cloudy
7:00 AM 61 °F 49 °F 55% 30.04 in 6 mi North 4.6 mph - -   Scattered Clouds
7:00 AM 60.8 °F 50.0 °F 68% 30.04 in 6.2 mi North 4.6 mph - N/A   Partly Cloudy
8:00 AM 60.8 °F 50.0 °F 68% 30.06 in 6.2 mi West 2.3 mph - N/A   Scattered Clouds
9:00 AM 62.6 °F 50.0 °F 63% 30.06 in 6.2 mi ESE 3.5 mph - N/A   Scattered Clouds
10:00 AM 65 °F 51 °F 51% 30.10 in 6 mi WNW 3.5 mph - -   Partly Cloudy
10:00 AM 64.4 °F 51.8 °F 64% 30.09 in 6.2 mi WNW 3.5 mph - N/A   Scattered Clouds
11:00 AM 66.2 °F 50.0 °F 56% 30.09 in 6.2 mi North 9.2 mph - N/A   Partly Cloudy
12:00 PM 68.0 °F 50.0 °F 52% 30.06 in - NNW 9.2 mph - N/A   Clear
1:00 PM 68 °F 49 °F 39% 30.04 in 6 mi North 8.1 mph - -   Scattered Clouds
1:00 PM 68.0 °F 48.2 °F 49% 30.04 in - North 8.1 mph - N/A   Clear
2:00 PM 68.0 °F 50.0 °F 52% 30.01 in - North 6.9 mph - N/A   Clear
3:00 PM 69.8 °F 50.0 °F 49% 30.01 in - North 8.1 mph - N/A   Clear
4:00 PM 69 °F 51 °F 41% 29.99 in 6 mi North 9.2 mph - -  
4:00 PM 68.0 °F 50.0 °F 52% 29.98 in - North 9.2 mph - N/A   Clear
5:00 PM 68.0 °F 50.0 °F 52% 29.98 in - North 11.5 mph - N/A   Clear
6:00 PM 66.2 °F 50.0 °F 56% 30.01 in - North 13.8 mph - N/A   Clear
7:00 PM 66.2 °F 53.6 °F 64% 30.01 in - North 10.4 mph - N/A   Clear
8:00 PM 64.4 °F 53.6 °F 68% 30.01 in - North 8.1 mph - N/A   Clear
9:00 PM 64.4 °F 53.6 °F 68% 30.04 in - NNW 4.6 mph - N/A   Clear
10:00 PM 65 °F 53 °F 56% 30.04 in 6 mi NNW 4.6 mph - -   Scattered Clouds
10:00 PM 64.4 °F 53.6 °F 68% 30.04 in - NNW 4.6 mph - N/A   Clear
11:00 PM 64.4 °F 51.8 °F 64% 30.04 in - NNE 2.3 mph - N/A   Clear